Location: Unspecified
(0.0000°N, 0.0000°E)
Time: 11:28:04
(UTC+00:00)

Explorer 7 - Pass Details

Date: 26 July 2019
Orbit: 485 x 680 km, 50.3° (Epoch: 07 December)

Event Time Altitude Azimuth Distance (km) Brightness Sun altitude
Rises 05:03:22 0° 317° (NW) 2,692 10.1 -14.9°
Maximum altitude 05:09:41 60° 233° (SW) 669 6.9 -13.4°
Drops below altitude 10° 05:14:07 10° 153° (SSE) 1,965 9.7 -12.3°
Sets 05:16:32 0° 149° (SSE) 2,905 10.7 -11.8°
